Погода в Таганроге

Погода в Таганроге : погода сейчас, прогноз погоды и архив. Всё, что Вы хотите узнать о погоде в Таганроге!

Хотите узнать прогноз погоды в Таганроге? Тогда Вам сюда: Погода в Таганроге

Поиск расширенной информации на нашем сайте:

Другие новости

Новости СМИ2

Главная страница сайта

Новости сайта

03.07.2017

Напоминаем, что на нашем специализированном сайте Метеоцентр.Азия вы можете получить высокодетализированные автоматические прогнозы погоды по пунктам России, СНГ и мира в авиационном формате (включающие направление и скорость ветра, видимость, явления погоды, количество и форму облачности, нижнюю и верхнюю границу облачности).

Рекомендуем: комплексное бухгалтерское обслуживание ип

Погода в Таганроге - сегодня

Время (UTC), дата Ветер
(°,м/с) 
Видим.   Явления Облачность Т
(°С)
Тd
(°С)
f(%) Тe
(°С)
Pmin
(гПа)
dP
(гПа)
Po
(мм)
O2
(г/м3)
Тmin Tmax R s Состояние
почвы
00 19.09.17 300 (СЗ) 20000 м    ясно 
+19.8 +12.7 64 +26  1012  0.4  756  282           
03 19.09.17 330 (СЗ) 20000 м    ясно 
+19 +13 68 +25  1012.6  0.6  757  282  +19        сухая 
06 19.09.17 350 (С) 20000 м    ясно 
+23.4 +11.2 46 +26  1013.9  1.3  758  279  +18.8         
09 19.09.17 210 (ЮЗ) 10 км    ясно 
+28.1 +14.2 43 +35  1014  0.1  758  274           
12 19.09.17 230 (ЮЗ) 10 км    ясно 
+28.8 +14.4 41 +36  1013.3  -0.6  757  273           
15 19.09.17 340 (С) 10 км    ясно 
+29.1 +10.4 31 +31  1012.9  -0.4  757  274    +29.5       
18 19.09.17 010 (С) 20000 м    ясно 
+25.8 +10.7 39 +28  1014  758  277           
21 19.09.17 010 (С) 20000 м    ясно 
+23.3 +10.8 45 +25  1014.4  0.4  758  279           
00 20.09.17 010 (С) 20000 м    ясно 
+21.2 +8.8 45 +21  1014.5  0.1  758  282           
03 20.09.17 010 (С) 20000 м    ясно 
+19.3 +8.4 49 +20  1014.5  0.1  758  284  +19.3        сухая 
06 20.09.17 030 (СВ) 20000 м    ясно 
+22 +8.3 41 +22  1015.3  0.8  759  282  +19         
09 20.09.17 070 (В) 20000 м    ясно 
+27.9 +8.5 30 +28  1014.8  -0.4  758  276           
12 20.09.17 080 (В) 20000 м    1/0 средняя 
[Ac cast]
+30.7 +10 28 +32  1013.9  -0.8  758  273           
15 20.09.17 100 (В) 20000 м    3/0 средняя, верхняя 
[Ac lent|Cc]
+28.6 +9.5 30 +29  1013.6  -0.3  758  275    +31       
18 20.09.17 060 (СВ) 20000 м    ясно 
+25.8 +10.4 38 +27  1014  0.4  758  277           
21 20.09.17 030 (СВ) 20000 м    ясно 
+22.5 +12.4 53 +27  1013.8  -0.3  758  280           
00 21.09.17 030 (СВ) 20000 м    ясно 
+21.3 +12 55 +25  1013.5  -0.3  757  281           
03 21.09.17 020 (С) 20000 м    1/0 средняя 
[Ac cast]
+19.1 +12.4 65 +24  1013.8  0.2  758  283  +19.1        сухая 
06 21.09.17 050 (СВ) 20000 м    ясно 
+22.4 +13.3 56 +28  1013.8  0.1  758  280  +19         
09 21.09.17 080 (В) 20000 м    ясно 
+28.3 +14.4 43 +36  1012.7  -1  757  273           
12 21.09.17 050 (СВ) 20000 м    ясно 
+31.3 +11.8 30 +35  1011.7  -1  756  271           
15 21.09.17 060 (СВ) 20000 м    ясно 
+29 +11.5 34 +32  1011.2  -0.4  756  273    +31.3       
18 21.09.17 360 (С) 20000 м    ясно 
+24.8 +14.5 53 +32  1011.4  -0.4  756  276           
21 21.09.17 010 (С) 20000 м    ясно 
+23.9 +13.2 51 +29  1011  -0.4  755  277           
00 22.09.17 050 (СВ) 3{10}  20000 м    ясно 
+23 +8.1 38 +23  1010.9  0.1  755  279           
Время (UTC), дата Ветер
(°,м/с) 
Видим.   Явления Облачность Т
(°С)
Тd
(°С)
f(%) Тe
(°С)
Pmin
(гПа)
dP
(гПа)
Po
(мм)
O2
(г/м3)
Тmin Tmax R s Состояние
почвы

Для получения пояснительной информации подведите курсор к названию столбца.

ПОГОДА в Таганроге - архив

Всё, что Вы хотите узнать о погоде в Таганроге - удобно и подробно!

Выберите нужную дату (начиная с 1 января 2015* года) и нажмите кнопку "Найти".
Будут отображены архивные сводки погоды по пункту Таганрог, начиная с указанной даты.


Отображать данные в формате CSV (для использования в таблицах Excel)


Внимание! Наш архив погоды предназначен исключительно для личного некоммерческого использования в познавательных целях. Если Вам необходимы официальные справки о состоянии погоды (для производственных, юридических, коммерческих и т.п. целей), обращайтесь в органы Росгидромета.

*Примечание: данная дата относится к архиву по метеостанциям СССР (Россия, СНГ, Балтия).
Архив по метеостанциям Зарубежной Европы и Азии (кроме Китая) хранится 10 дней, по другим регионам земного шара (Китай, Африка, Америка, Австралия, Океания) - 1 день.

Таганрог - район местоположения метеостанции


Название, широта, долгота, высота метеостанции:
Таганрог 47.2°ш. 38.9°д. 32 м над ур. моря [Российская Федерация]

Дополнительная информация

В oтличие oт бoльшинства пoгoдных сайтoв мы публикуем пoдрoбную метеoинфoрмацию в детальнoм прoфессиoнальнoм фoрмате.

Характеристики температуры и влажнoсти вoздуха измеряются на высoте 2 м в тени вдали oт зданий и деревьев.
Скoрoсть ветра измеряется на высoте 10 м (на урoвне рoста челoвека скoрoсть ветра ниже в 1.5-2 раза). Если метеoстанция нахoдится в гoрoде или в лесу, тo скoрoсть ветра занижена на 2-4 м/с пo сравнению с oткрытым местoм. Скoрoсть ветра над акватoриями крупных рек и oзёр, а также на вершинах хoлмoв на 2-5 м/с выше, чем в oбычных услoвиях.
Атмoсфернoе давление в разных тoчках местнoсти мoжет значительнo oтличаться oт давления на метеoстанции, в зависимoсти oт услoвий рельефа (при пoдъёме на 10 м давление пoнижается примернo на 1 мм рт.ст.).